Orbital Elements at Epoch 2459000.5 (2020-May-31.0) TDB
Reference: JPL 26 (heliocentric ecliptic J2000)
Element | Value | Uncertainty (1-sigma) | Units |
e | .1321592366425026 | 4.8767e-08 | |
a | 2.684560186038591 | 2.0883e-08 | au |
q | 2.329770761130876 | 1.36e-07 | au |
i | 10.84665578596979 | 4.1641e-06 | deg |
node | 97.16006045942319 | 2.8069e-05 | deg |
peri | 261.8195330462913 | 3.198e-05 | deg |
M | 201.1023930538398 | 1.851e-05 | deg |
tp | 2459709.625332536919 (2022-May-10.12533254) | 8.692e-05 | TDB |
period | 1606.601412189864 4.40 | 1.8747e-05 5.133e-08 | d yr |
n | .2240754908271275 | 2.6147e-09 | deg/d |
Q | 3.039349610946306 | 2.3643e-08 | au |
|
| | Orbit Determination Parameters
Additional Information
|